DECAYED

STARLINK-2320, 47866 (Decayed)

Orbit data source: Space-Track

STARLINK-2320, 47866 was a payload satellite owned by SpaceX/Seattle (US) in LEO that was launched on Sun, 14 Mar 2021 UTC via an FALCON 9 launch vehicle from the Air Force Eastern Test Range (AFETR). Payload-class satellites include a variety of spacecraft equipped with specific instruments for various scientific and technological missions. These include communications satellites like Starlink; space stations such as the ISS; scientific satellites like the Hubble; Earth observation satellites from companies like Planet Labs, Umbra, and HawkEye 360; GPS; miniature CubeSats for education and research; and military/defense satellites.

Not visible in the next 10 days
Identifier
47866, 2021-021G
Orbit
Decayed
Country
Flag of USUS
Related business
Manufacturer
SpaceX/Seattle
Mission
Decayed Commercial Communications
Bus & Motor
STARLINK, Unknown motor
Mass
260 kg wet, ~248 kg dry
Launch date (UTC)
2021-03-14 (5 years ago)
Launch vehicle
FALCON 9
Launch site
Air Force Eastern Test Range (AFETR)
Object type
Payload
Rocket body
Debris
Shape & HBR
Box + 1 Pan, 10.1 m
Radar Cross Section
13.562 m², Large (>1 m²)

Expand to show TLE details & history
Last TLE update: 1 year ago

TLE from 1 year ago
0 STARLINK-2320
1 47866U 21021G   25051.71153078  .11050445  12436-4  83579-3 0  9997
2 47866  53.0333 147.0546 0005740 330.3354 152.2174 16.39654297218694
Epoch: 2025-02-20T17:04Z
TLE epoch observation values (Epoch: 2025-02-20T17:04:36.259Z)
Latitude
42.45861°
Longitude
-123.19259°
Altitude
174.125 km
Speed
7.805 km/s
True Right ascension
18h 55m 22s
True Declination
42° 16' 20"
Sunlit
Object was in daylight at epoch
Visualization orbit readout
Latitude
Unknown
Longitude
Unknown
Altitude
Unknown
Speed
Unknown
Apparent Right ascension
Unknown
Apparent Declination
Unknown
Sunlit
N/A
Visualization observer readout
Local Sidereal Time
00:35:57
Azimuth
Unknown
Elevation
Unknown
Doppler factor
Unknown
Orbital elements
Apogee altitude
170.769 km
Perigee altitude
163.255 km
Semi-major axis
6,545.149 km
Eccentricity
0.00057
Inclination
53.0333°
RAAN
147.0546°
Arg. of periapsis
330.3354°
True anomaly
152.24804°
Mean anomaly
152.2174°
Eccentric anomaly
152.23272°
Mean motion
4.09887 °/min
Orbital period
87.83 mins
BSTAR
0.00083579
Loading maneuver chart data...
Computing Atmospheric mass density...

Documentation

Showing up to 5 results
|